Time,TemperatureF,DewpointF,PressureIn,WindDirection,WindDirectionDegrees,WindSpeedMPH,WindSpeedGustMPH,Humidity,HourlyPrecipIn,Conditions,Clouds,dailyrainin,SoftwareType,DateUTC
2013-07-16 00:01:00,60.1,52.5,29.91,NNW,336,0.0,0.0,76,0.00,,---,0.00,VWS V13.00,2013-07-16 07:01:00,
2013-07-16 00:06:00,59.9,52.7,29.91,NNW,336,0.0,0.0,77,0.00,,---,0.00,VWS V13.00,2013-07-16 07:06:00,
2013-07-16 00:11:00,59.8,52.2,29.91,NNW,336,0.0,0.0,76,0.00,,---,0.00,VWS V13.00,2013-07-16 07:11:00,
2013-07-16 00:16:00,59.6,52.0,29.91,NNW,336,0.0,0.0,76,0.00,,---,0.00,VWS V13.00,2013-07-16 07:16:00,
2013-07-16 00:21:00,59.5,51.6,29.91,NNW,336,0.0,0.0,75,0.00,,---,0.00,VWS V13.00,2013-07-16 07:21:00,
2013-07-16 00:26:00,59.3,51.8,29.91,NNW,336,0.0,0.0,76,0.00,,---,0.00,VWS V13.00,2013-07-16 07:26:00,
2013-07-16 00:31:00,59.3,52.1,29.91,NNW,336,0.0,0.0,77,0.00,,---,0.00,VWS V13.00,2013-07-16 07:31:00,
2013-07-16 00:36:00,59.2,51.7,29.91,NNW,336,0.0,0.0,76,0.00,,---,0.00,VWS V13.00,2013-07-16 07:36:00,
2013-07-16 00:41:00,59.0,51.8,29.91,NNW,336,0.0,0.0,77,0.00,,---,0.00,VWS V13.00,2013-07-16 07:41:00,
2013-07-16 00:46:00,58.9,52.1,29.91,NNW,336,0.0,0.0,78,0.00,,---,0.00,VWS V13.00,2013-07-16 07:46:00,
2013-07-16 00:51:00,58.7,51.9,29.91,NNW,336,0.0,0.0,78,0.00,,---,0.00,VWS V13.00,2013-07-16 07:51:00,
2013-07-16 00:56:00,58.6,51.8,29.91,NNW,336,0.0,0.0,78,0.00,,---,0.00,VWS V13.00,2013-07-16 07:56:00,
2013-07-16 01:01:00,58.4,51.6,29.91,NNW,336,0.0,0.0,78,0.00,,---,0.00,VWS V13.00,2013-07-16 08:01:00,
2013-07-16 01:06:00,58.3,51.5,29.90,NNW,336,0.0,0.0,78,0.00,,---,0.00,VWS V13.00,2013-07-16 08:06:00,
2013-07-16 01:11:00,58.0,51.2,29.90,NNW,336,0.0,0.0,78,0.00,,---,0.00,VWS V13.00,2013-07-16 08:11:00,
2013-07-16 01:16:00,57.8,51.0,29.90,NNW,336,0.0,0.0,78,0.00,,---,0.00,VWS V13.00,2013-07-16 08:16:00,
2013-07-16 01:21:00,57.6,51.1,29.90,NNW,336,0.0,0.0,79,0.00,,---,0.00,VWS V13.00,2013-07-16 08:21:00,
2013-07-16 01:26:00,57.5,51.0,29.90,NNW,336,0.0,0.0,79,0.00,,---,0.00,VWS V13.00,2013-07-16 08:26:00,
2013-07-16 01:31:00,57.3,50.8,29.90,NNW,336,0.0,0.0,79,0.00,,---,0.00,VWS V13.00,2013-07-16 08:31:00,
2013-07-16 01:35:00,57.2,51.1,29.90,NNW,336,0.0,0.0,80,0.00,,---,0.00,VWS V13.00,2013-07-16 08:35:00,
2013-07-16 01:40:00,57.2,51.1,29.90,NNW,336,0.0,0.0,80,0.00,,---,0.00,VWS V13.00,2013-07-16 08:40:00,
2013-07-16 01:45:00,57.0,50.9,29.90,NNW,336,0.0,0.0,80,0.00,,---,0.00,VWS V13.00,2013-07-16 08:45:00,
2013-07-16 01:51:00,56.9,50.8,29.90,NNW,336,0.0,0.0,80,0.00,,---,0.00,VWS V13.00,2013-07-16 08:51:00,
2013-07-16 01:56:00,56.7,50.9,29.90,NNW,336,0.0,0.0,81,0.00,,---,0.00,VWS V13.00,2013-07-16 08:56:00,
2013-07-16 02:01:00,56.7,50.9,29.90,NNW,336,0.0,0.0,81,0.00,,---,0.00,VWS V13.00,2013-07-16 09:01:00,
2013-07-16 02:06:00,56.6,50.8,29.90,NNW,336,0.0,0.0,81,0.00,,---,0.00,VWS V13.00,2013-07-16 09:06:00,
2013-07-16 02:11:00,56.5,50.8,29.90,NNW,336,0.0,0.0,81,0.00,,---,0.00,VWS V13.00,2013-07-16 09:11:00,
2013-07-16 02:16:00,56.5,51.1,29.90,NNW,336,0.0,0.0,82,0.00,,---,0.00,VWS V13.00,2013-07-16 09:16:00,
2013-07-16 02:21:00,56.3,50.9,29.89,NNW,336,0.0,0.0,82,0.00,,---,0.00,VWS V13.00,2013-07-16 09:21:00,
2013-07-16 02:25:00,56.2,50.8,29.89,NNW,336,0.0,0.0,82,0.00,,---,0.00,VWS V13.00,2013-07-16 09:25:00,
2013-07-16 02:30:00,56.0,50.6,29.89,NNW,336,0.0,0.0,82,0.00,,---,0.00,VWS V13.00,2013-07-16 09:30:00,
2013-07-16 02:35:00,56.0,50.6,29.89,NNW,336,0.0,0.0,82,0.00,,---,0.00,VWS V13.00,2013-07-16 09:35:00,
2013-07-16 02:40:00,55.9,50.5,29.89,NNW,336,0.0,0.0,82,0.00,,---,0.00,VWS V13.00,2013-07-16 09:40:00,
2013-07-16 02:45:00,55.7,50.6,29.89,NNW,336,0.0,0.0,83,0.00,,---,0.00,VWS V13.00,2013-07-16 09:45:00,
2013-07-16 02:50:00,55.6,50.2,29.90,NNW,336,0.0,2.0,82,0.00,,---,0.00,VWS V13.00,2013-07-16 09:50:00,
2013-07-16 02:55:00,55.6,50.2,29.90,NNW,336,0.0,2.0,82,0.00,,---,0.00,VWS V13.00,2013-07-16 09:55:00,
2013-07-16 03:00:00,55.4,50.0,29.90,NNW,336,0.0,2.0,82,0.00,,---,0.00,VWS V13.00,2013-07-16 10:00:00,
2013-07-16 03:05:00,55.4,50.0,29.89,NNW,336,0.0,2.0,82,0.00,,---,0.00,VWS V13.00,2013-07-16 10:05:00,
2013-07-16 03:10:00,55.4,50.0,29.89,NNW,336,0.0,0.0,82,0.00,,---,0.00,VWS V13.00,2013-07-16 10:10:00,
2013-07-16 03:15:00,55.4,50.0,29.89,NNW,336,0.0,0.0,82,0.00,,---,0.00,VWS V13.00,2013-07-16 10:15:00,
2013-07-16 03:20:00,55.4,50.3,29.88,NNW,336,0.0,0.0,83,0.00,,---,0.00,VWS V13.00,2013-07-16 10:20:00,
2013-07-16 03:25:00,55.4,50.3,29.88,NNW,336,0.0,0.0,83,0.00,,---,0.00,VWS V13.00,2013-07-16 10:25:00,
2013-07-16 03:30:00,55.3,49.9,29.88,NNW,336,0.0,0.0,82,0.00,,---,0.00,VWS V13.00,2013-07-16 10:30:00,
2013-07-16 03:35:00,55.3,49.9,29.88,NNW,336,0.0,0.0,82,0.00,,---,0.00,VWS V13.00,2013-07-16 10:35:00,
2013-07-16 03:40:00,55.1,49.7,29.88,NNW,336,0.0,0.0,82,0.00,,---,0.00,VWS V13.00,2013-07-16 10:40:00,
2013-07-16 03:45:00,55.0,49.6,29.88,NNW,336,0.0,0.0,82,0.00,,---,0.00,VWS V13.00,2013-07-16 10:45:00,
2013-07-16 03:50:00,55.0,49.6,29.88,NNW,336,0.0,0.0,82,0.00,,---,0.00,VWS V13.00,2013-07-16 10:50:00,
2013-07-16 03:51:00,55.0,49.6,29.88,NNW,336,0.0,0.0,82,0.00,,---,0.00,VWS V13.00,2013-07-16 10:51:00,
2013-07-16 03:56:00,54.8,49.4,29.88,NNW,336,0.0,0.0,82,0.00,,---,0.00,VWS V13.00,2013-07-16 10:56:00,
2013-07-16 04:01:00,54.8,49.4,29.88,NNW,336,0.0,0.0,82,0.00,,---,0.00,VWS V13.00,2013-07-16 11:01:00,
2013-07-16 04:06:00,54.8,49.7,29.88,NNW,336,0.0,0.0,83,0.00,,---,0.00,VWS V13.00,2013-07-16 11:06:00,
2013-07-16 04:11:00,54.7,49.3,29.88,NNW,336,0.0,0.0,82,0.00,,---,0.00,VWS V13.00,2013-07-16 11:11:00,
2013-07-16 04:16:00,54.5,49.1,29.88,NNW,336,0.0,0.0,82,0.00,,---,0.00,VWS V13.00,2013-07-16 11:16:00,
2013-07-16 04:21:00,54.5,49.1,29.88,NNW,336,0.0,0.0,82,0.00,,---,0.00,VWS V13.00,2013-07-16 11:21:00,
2013-07-16 04:26:00,54.4,49.0,29.88,NNW,336,0.0,1.0,82,0.00,,---,0.00,VWS V13.00,2013-07-16 11:26:00,
2013-07-16 04:31:00,54.4,49.0,29.88,NNW,336,0.0,1.0,82,0.00,,---,0.00,VWS V13.00,2013-07-16 11:31:00,
2013-07-16 04:36:00,54.4,49.0,29.88,NNW,336,0.0,1.0,82,0.00,,---,0.00,VWS V13.00,2013-07-16 11:36:00,
2013-07-16 04:41:00,54.4,49.3,29.88,NNW,336,0.0,0.0,83,0.00,,---,0.00,VWS V13.00,2013-07-16 11:41:00,
2013-07-16 04:46:00,54.2,49.2,29.88,NNW,336,0.0,0.0,83,0.00,,---,0.00,VWS V13.00,2013-07-16 11:46:00,
2013-07-16 04:51:00,54.2,49.2,29.88,NNW,336,0.0,0.0,83,0.00,,---,0.00,VWS V13.00,2013-07-16 11:51:00,
2013-07-16 04:56:00,54.2,49.2,29.88,NNW,336,0.0,0.0,83,0.00,,---,0.00,VWS V13.00,2013-07-16 11:56:00,
2013-07-16 05:01:00,54.1,49.4,29.88,NNW,336,0.0,0.0,84,0.00,,---,0.00,VWS V13.00,2013-07-16 12:01:00,
2013-07-16 05:06:00,54.1,49.4,29.88,NNW,336,0.0,0.0,84,0.00,,---,0.00,VWS V13.00,2013-07-16 12:06:00,
2013-07-16 05:11:00,53.9,49.2,29.88,NNW,336,0.0,0.0,84,0.00,,---,0.00,VWS V13.00,2013-07-16 12:11:00,
2013-07-16 05:16:00,53.8,49.1,29.88,NNW,336,0.0,0.0,84,0.00,,---,0.00,VWS V13.00,2013-07-16 12:16:00,
2013-07-16 05:21:00,53.8,49.1,29.88,NNW,336,0.0,0.0,84,0.00,,---,0.00,VWS V13.00,2013-07-16 12:21:00,
2013-07-16 05:26:00,53.6,49.2,29.88,NNW,336,0.0,0.0,85,0.00,,---,0.00,VWS V13.00,2013-07-16 12:26:00,
2013-07-16 05:31:00,53.5,49.1,29.88,NNW,336,0.0,0.0,85,0.00,,---,0.00,VWS V13.00,2013-07-16 12:31:00,
2013-07-16 05:36:00,53.3,48.9,29.87,NNW,336,0.0,0.0,85,0.00,,---,0.00,VWS V13.00,2013-07-16 12:36:00,
2013-07-16 05:41:00,53.3,48.9,29.87,NNW,336,0.0,0.0,85,0.00,,---,0.00,VWS V13.00,2013-07-16 12:41:00,
2013-07-16 05:46:00,53.2,48.8,29.87,NNW,336,0.0,0.0,85,0.00,,---,0.00,VWS V13.00,2013-07-16 12:46:00,
2013-07-16 05:51:00,53.2,49.1,29.87,NNW,336,0.0,0.0,86,0.00,,---,0.00,VWS V13.00,2013-07-16 12:51:00,
2013-07-16 05:56:00,53.2,49.4,29.87,NNW,336,0.0,0.0,87,0.00,,---,0.00,VWS V13.00,2013-07-16 12:56:00,
2013-07-16 06:01:00,53.1,49.3,29.87,NNW,336,0.0,0.0,87,0.00,,---,0.00,VWS V13.00,2013-07-16 13:01:00,
2013-07-16 06:06:00,53.1,49.3,29.88,NNW,336,0.0,0.0,87,0.00,,---,0.00,VWS V13.00,2013-07-16 13:06:00,
2013-07-16 06:11:00,53.1,49.7,29.88,NNW,336,0.0,0.0,88,0.00,,---,0.00,VWS V13.00,2013-07-16 13:11:00,
2013-07-16 06:16:00,53.1,49.7,29.88,NNW,336,0.0,0.0,88,0.00,,---,0.00,VWS V13.00,2013-07-16 13:16:00,
2013-07-16 06:21:00,53.1,49.7,29.88,NNW,336,0.0,0.0,88,0.00,,---,0.00,VWS V13.00,2013-07-16 13:21:00,
2013-07-16 06:26:00,53.1,50.0,29.88,NNW,336,0.0,0.0,89,0.00,,---,0.00,VWS V13.00,2013-07-16 13:26:00,
2013-07-16 06:31:00,53.2,50.0,29.88,NNW,336,0.0,0.0,89,0.00,,---,0.00,VWS V13.00,2013-07-16 13:31:00,
2013-07-16 06:36:00,53.2,50.0,29.87,NNW,336,0.0,0.0,89,0.00,,---,0.00,VWS V13.00,2013-07-16 13:36:00,
2013-07-16 06:41:00,53.3,50.2,29.87,NNW,336,0.0,0.0,89,0.00,,---,0.00,VWS V13.00,2013-07-16 13:41:00,
2013-07-16 06:46:00,53.5,50.3,29.87,NNW,336,0.0,0.0,89,0.00,,---,0.00,VWS V13.00,2013-07-16 13:46:00,
2013-07-16 06:51:00,53.5,50.6,29.87,NNW,336,0.0,0.0,90,0.00,,---,0.00,VWS V13.00,2013-07-16 13:51:00,
2013-07-16 06:56:00,53.6,50.7,29.87,NNW,336,0.0,0.0,90,0.00,,---,0.00,VWS V13.00,2013-07-16 13:56:00,
2013-07-16 07:01:00,53.8,50.9,29.87,NNW,336,0.0,0.0,90,0.00,,---,0.00,VWS V13.00,2013-07-16 14:01:00,
2013-07-16 07:06:00,53.9,51.0,29.87,NNW,336,0.0,0.0,90,0.00,,---,0.00,VWS V13.00,2013-07-16 14:06:00,
2013-07-16 07:11:00,54.1,51.2,29.87,NNW,336,0.0,0.0,90,0.00,,---,0.00,VWS V13.00,2013-07-16 14:11:00,
2013-07-16 07:16:00,54.2,51.3,29.87,NNW,336,0.0,0.0,90,0.00,,---,0.00,VWS V13.00,2013-07-16 14:16:00,
2013-07-16 07:20:00,54.4,51.8,29.88,NNW,336,0.0,0.0,91,0.00,,---,0.00,VWS V13.00,2013-07-16 14:20:00,
2013-07-16 07:25:00,54.5,51.9,29.88,NNW,336,0.0,0.0,91,0.00,,---,0.00,VWS V13.00,2013-07-16 14:25:00,
2013-07-16 07:30:00,54.7,52.1,29.88,NNW,336,0.0,0.0,91,0.00,,---,0.00,VWS V13.00,2013-07-16 14:30:00,
2013-07-16 07:35:00,55.0,52.4,29.87,NNW,336,0.0,0.0,91,0.00,,---,0.00,VWS V13.00,2013-07-16 14:35:00,
2013-07-16 07:40:00,55.3,52.7,29.87,NNW,336,0.0,0.0,91,0.00,,---,0.00,VWS V13.00,2013-07-16 14:40:00,
2013-07-16 07:45:00,55.4,52.8,29.87,NNW,336,0.0,0.0,91,0.00,,---,0.00,VWS V13.00,2013-07-16 14:45:00,
2013-07-16 07:50:00,55.7,53.1,29.86,NNW,336,0.0,0.0,91,0.00,,---,0.00,VWS V13.00,2013-07-16 14:50:00,
2013-07-16 07:55:00,55.9,53.3,29.86,NNW,336,0.0,0.0,91,0.00,,---,0.00,VWS V13.00,2013-07-16 14:55:00,
2013-07-16 08:00:00,56.2,53.3,29.86,NNW,336,0.0,0.0,90,0.00,,---,0.00,VWS V13.00,2013-07-16 15:00:00,
2013-07-16 08:05:00,56.3,53.4,29.86,NNW,336,0.0,0.0,90,0.00,,---,0.00,VWS V13.00,2013-07-16 15:05:00,
2013-07-16 08:10:00,56.9,53.7,29.86,NNW,336,0.0,0.0,89,0.00,,---,0.00,VWS V13.00,2013-07-16 15:10:00,
2013-07-16 08:15:00,57.3,54.1,29.86,NNW,336,0.0,0.0,89,0.00,,---,0.00,VWS V13.00,2013-07-16 15:15:00,
2013-07-16 08:20:00,58.1,54.6,29.86,NNW,336,0.0,0.0,88,0.00,,---,0.00,VWS V13.00,2013-07-16 15:20:00,
2013-07-16 08:25:00,58.7,54.2,29.86,NNW,336,0.0,0.0,85,0.00,,---,0.00,VWS V13.00,2013-07-16 15:25:00,
2013-07-16 08:30:00,59.9,53.7,29.86,NNW,336,0.0,0.0,80,0.00,,---,0.00,VWS V13.00,2013-07-16 15:30:00,
2013-07-16 08:35:00,61.2,53.9,29.86,NNW,336,0.0,1.0,77,0.00,,---,0.00,VWS V13.00,2013-07-16 15:35:00,
2013-07-16 08:40:00,62.1,54.1,29.86,NNW,336,0.0,0.0,75,0.00,,---,0.00,VWS V13.00,2013-07-16 15:40:00,
2013-07-16 08:45:00,63.1,54.7,29.86,NNW,336,0.0,0.0,74,0.00,,---,0.00,VWS V13.00,2013-07-16 15:45:00,
2013-07-16 08:50:00,63.9,55.1,29.86,NNW,336,0.0,0.0,73,0.00,,---,0.00,VWS V13.00,2013-07-16 15:50:00,
2013-07-16 08:55:00,64.7,54.7,29.86,NNW,336,0.0,0.0,70,0.00,,---,0.00,VWS V13.00,2013-07-16 15:55:00,
2013-07-16 09:00:00,65.2,54.0,29.86,NNW,336,0.0,0.0,67,0.00,,---,0.00,VWS V13.00,2013-07-16 16:00:00,
2013-07-16 09:05:00,66.0,55.5,29.86,NNW,336,0.0,0.0,69,0.00,,---,0.00,VWS V13.00,2013-07-16 16:05:00,
2013-07-16 09:10:00,66.6,55.7,29.86,NNW,336,0.0,0.0,68,0.00,,---,0.00,VWS V13.00,2013-07-16 16:10:00,
2013-07-16 09:15:00,67.1,55.4,29.86,NNW,336,0.0,0.0,66,0.00,,---,0.00,VWS V13.00,2013-07-16 16:15:00,
2013-07-16 09:20:00,67.8,55.6,29.86,NNW,336,0.0,0.0,65,0.00,,---,0.00,VWS V13.00,2013-07-16 16:20:00,
2013-07-16 09:25:00,68.4,55.3,29.86,NNW,336,0.0,0.0,63,0.00,,---,0.00,VWS V13.00,2013-07-16 16:25:00,
2013-07-16 09:30:00,68.8,54.8,29.86,NNW,336,0.0,0.0,61,0.00,,---,0.00,VWS V13.00,2013-07-16 16:30:00,
2013-07-16 09:35:00,68.9,54.5,29.86,NNW,336,0.0,0.0,60,0.00,,---,0.00,VWS V13.00,2013-07-16 16:35:00,
2013-07-16 09:40:00,69.1,53.7,29.86,NE,41,0.0,0.0,58,0.00,,---,0.00,VWS V13.00,2013-07-16 16:40:00,
2013-07-16 09:45:00,69.3,54.8,29.86,NE,41,0.0,0.0,60,0.00,,---,0.00,VWS V13.00,2013-07-16 16:45:00,
2013-07-16 09:50:00,69.6,54.7,29.86,NE,41,0.0,0.0,59,0.00,,---,0.00,VWS V13.00,2013-07-16 16:50:00,
2013-07-16 09:55:00,69.9,53.5,29.86,NE,41,0.0,0.0,56,0.00,,---,0.00,VWS V13.00,2013-07-16 16:55:00,
2013-07-16 10:00:00,70.3,53.9,29.86,NE,41,0.0,0.0,56,0.00,,---,0.00,VWS V13.00,2013-07-16 17:00:00,
2013-07-16 10:05:00,70.9,55.4,29.87,NE,41,0.0,1.0,58,0.00,,---,0.00,VWS V13.00,2013-07-16 17:05:00,
2013-07-16 10:10:00,71.3,54.8,29.87,NE,41,0.0,0.0,56,0.00,,---,0.00,VWS V13.00,2013-07-16 17:10:00,
2013-07-16 10:15:00,71.8,55.8,29.87,NE,41,0.0,0.0,57,0.00,,---,0.00,VWS V13.00,2013-07-16 17:15:00,
2013-07-16 10:20:00,72.3,57.2,29.87,NE,41,0.0,1.0,59,0.00,,---,0.00,VWS V13.00,2013-07-16 17:20:00,
2013-07-16 10:25:00,71.8,55.3,29.87,NE,48,0.0,1.0,56,0.00,,---,0.00,VWS V13.00,2013-07-16 17:25:00,
2013-07-16 10:30:00,71.8,54.3,29.87,ENE,65,0.0,2.0,54,0.00,,---,0.00,VWS V13.00,2013-07-16 17:30:00,
2013-07-16 10:35:00,72.3,54.7,29.87,ENE,65,0.0,2.0,54,0.00,,---,0.00,VWS V13.00,2013-07-16 17:35:00,
2013-07-16 10:40:00,72.5,54.9,29.87,ENE,65,0.0,1.0,54,0.00,,---,0.00,VWS V13.00,2013-07-16 17:40:00,
2013-07-16 10:45:00,72.7,55.1,29.87,ENE,65,0.0,1.0,54,0.00,,---,0.00,VWS V13.00,2013-07-16 17:45:00,
2013-07-16 10:50:00,72.7,53.5,29.86,NE,48,2.0,3.0,51,0.00,,---,0.00,VWS V13.00,2013-07-16 17:50:00,
2013-07-16 10:55:00,73.2,53.5,29.86,NE,55,0.0,3.0,50,0.00,,---,0.00,VWS V13.00,2013-07-16 17:55:00,
2013-07-16 11:00:00,74.7,54.8,29.86,WSW,247,0.0,3.0,50,0.00,,---,0.00,VWS V13.00,2013-07-16 18:00:00,
2013-07-16 11:05:00,74.7,55.4,29.87,NE,51,0.0,3.0,51,0.00,,---,0.00,VWS V13.00,2013-07-16 18:05:00,
2013-07-16 11:10:00,76.1,54.4,29.87,NE,51,0.0,0.0,47,0.00,,---,0.00,VWS V13.00,2013-07-16 18:10:00,
2013-07-16 11:15:00,76.7,53.8,29.87,NE,51,0.0,1.0,45,0.00,,---,0.00,VWS V13.00,2013-07-16 18:15:00,
2013-07-16 11:20:00,76.7,55.0,29.87,NE,51,0.0,1.0,47,0.00,,---,0.00,VWS V13.00,2013-07-16 18:20:00,
2013-07-16 11:25:00,76.7,55.5,29.87,NE,51,0.0,1.0,48,0.00,,---,0.00,VWS V13.00,2013-07-16 18:25:00,
2013-07-16 11:30:00,77.2,54.8,29.87,NE,48,0.0,1.0,46,0.00,,---,0.00,VWS V13.00,2013-07-16 18:30:00,
2013-07-16 11:35:00,77.4,55.6,29.87,NE,41,0.0,1.0,47,0.00,,---,0.00,VWS V13.00,2013-07-16 18:35:00,
2013-07-16 11:40:00,77.9,56.1,29.86,North,10,0.0,1.0,47,0.00,,---,0.00,VWS V13.00,2013-07-16 18:40:00,
2013-07-16 11:45:00,78.3,57.0,29.86,North,10,0.0,1.0,48,0.00,,---,0.00,VWS V13.00,2013-07-16 18:45:00,
2013-07-16 11:50:00,78.3,56.4,29.86,North,10,0.0,1.0,47,0.00,,---,0.00,VWS V13.00,2013-07-16 18:50:00,
2013-07-16 11:55:00,78.3,54.6,29.86,North,10,0.0,1.0,44,0.00,,---,0.00,VWS V13.00,2013-07-16 18:55:00,
2013-07-16 12:00:00,78.3,55.8,29.86,North,10,0.0,1.0,46,0.00,,---,0.00,VWS V13.00,2013-07-16 19:00:00,
2013-07-16 12:05:00,78.1,56.8,29.86,North,10,0.0,1.0,48,0.00,,---,0.00,VWS V13.00,2013-07-16 19:05:00,
2013-07-16 12:10:00,77.9,57.2,29.85,North,10,0.0,0.0,49,0.00,,---,0.00,VWS V13.00,2013-07-16 19:10:00,
2013-07-16 12:15:00,77.9,57.2,29.85,North,10,0.0,0.0,49,0.00,,---,0.00,VWS V13.00,2013-07-16 19:15:00,
2013-07-16 12:20:00,77.7,58.7,29.85,North,10,0.0,0.0,52,0.00,,---,0.00,VWS V13.00,2013-07-16 19:20:00,
2013-07-16 12:25:00,77.7,59.2,29.85,North,10,0.0,0.0,53,0.00,,---,0.00,VWS V13.00,2013-07-16 19:25:00,
2013-07-16 12:30:00,78.8,60.2,29.85,North,10,0.0,0.0,53,0.00,,---,0.00,VWS V13.00,2013-07-16 19:30:00,
2013-07-16 12:35:00,79.4,58.6,29.85,North,10,0.0,0.0,49,0.00,,---,0.00,VWS V13.00,2013-07-16 19:35:00,
2013-07-16 12:40:00,79.6,58.8,29.85,North,10,0.0,0.0,49,0.00,,---,0.00,VWS V13.00,2013-07-16 19:40:00,
2013-07-16 12:45:00,79.8,59.5,29.85,North,10,0.0,0.0,50,0.00,,---,0.00,VWS V13.00,2013-07-16 19:45:00,
2013-07-16 12:50:00,79.9,57.9,29.85,North,10,0.0,0.0,47,0.00,,---,0.00,VWS V13.00,2013-07-16 19:50:00,
2013-07-16 12:55:00,80.3,59.4,29.84,North,10,0.0,0.0,49,0.00,,---,0.00,VWS V13.00,2013-07-16 19:55:00,
2013-07-16 13:00:00,80.7,58.0,29.84,North,10,0.0,0.0,46,0.00,,---,0.00,VWS V13.00,2013-07-16 20:00:00,
2013-07-16 13:05:00,80.5,57.2,29.84,SE,124,0.0,0.0,45,0.00,,---,0.00,VWS V13.00,2013-07-16 20:05:00,
2013-07-16 13:10:00,80.5,58.4,29.85,ENE,58,0.0,2.0,47,0.00,,---,0.00,VWS V13.00,2013-07-16 20:10:00,
2013-07-16 13:15:00,80.9,58.8,29.85,NNE,31,0.0,3.0,47,0.00,,---,0.00,VWS V13.00,2013-07-16 20:15:00,
2013-07-16 13:20:00,83.2,59.7,29.85,NNW,330,0.0,3.0,45,0.00,,---,0.00,VWS V13.00,2013-07-16 20:20:00,
2013-07-16 13:25:00,82.8,59.9,29.85,North,356,0.0,3.0,46,0.00,,---,0.00,VWS V13.00,2013-07-16 20:25:00,
2013-07-16 13:30:00,82.0,59.8,29.85,North,350,0.0,3.0,47,0.00,,---,0.00,VWS V13.00,2013-07-16 20:30:00,
2013-07-16 13:35:00,82.0,62.1,29.85,North,350,0.0,3.0,51,0.00,,---,0.00,VWS V13.00,2013-07-16 20:35:00,
2013-07-16 13:40:00,82.2,57.5,29.84,North,350,0.0,0.0,43,0.00,,---,0.00,VWS V13.00,2013-07-16 20:40:00,
2013-07-16 13:45:00,81.8,59.0,29.84,North,357,0.0,0.0,46,0.00,,---,0.00,VWS V13.00,2013-07-16 20:45:00,
2013-07-16 13:50:00,81.8,57.8,29.84,North,356,0.0,1.0,44,0.00,,---,0.00,VWS V13.00,2013-07-16 20:50:00,
2013-07-16 13:55:00,81.6,58.8,29.84,North,357,0.0,1.0,46,0.00,,---,0.00,VWS V13.00,2013-07-16 20:55:00,
2013-07-16 14:00:00,81.6,60.6,29.84,North,357,0.0,1.0,49,0.00,,---,0.00,VWS V13.00,2013-07-16 21:00:00,
2013-07-16 14:05:00,81.8,61.4,29.84,North,356,0.0,1.0,50,0.00,,---,0.00,VWS V13.00,2013-07-16 21:05:00,
2013-07-16 14:10:00,81.8,61.9,29.83,North,357,0.0,0.0,51,0.00,,---,0.00,VWS V13.00,2013-07-16 21:10:00,
2013-07-16 14:15:00,81.6,61.2,29.83,North,357,0.0,0.0,50,0.00,,---,0.00,VWS V13.00,2013-07-16 21:15:00,
2013-07-16 14:20:00,81.6,61.2,29.83,North,357,0.0,0.0,50,0.00,,---,0.00,VWS V13.00,2013-07-16 21:20:00,
2013-07-16 14:25:00,81.6,61.2,29.83,North,357,0.0,0.0,50,0.00,,---,0.00,VWS V13.00,2013-07-16 21:25:00,
2013-07-16 14:30:00,81.4,61.0,29.83,North,357,0.0,0.0,50,0.00,,---,0.00,VWS V13.00,2013-07-16 21:30:00,
2013-07-16 14:35:00,81.4,62.1,29.83,North,357,0.0,0.0,52,0.00,,---,0.00,VWS V13.00,2013-07-16 21:35:00,
2013-07-16 14:40:00,81.2,61.9,29.83,North,353,0.0,0.0,52,0.00,,---,0.00,VWS V13.00,2013-07-16 21:40:00,
2013-07-16 14:45:00,81.1,62.4,29.83,North,357,0.0,0.0,53,0.00,,---,0.00,VWS V13.00,2013-07-16 21:45:00,
2013-07-16 14:50:00,80.9,63.2,29.83,North,357,0.0,0.0,55,0.00,,---,0.00,VWS V13.00,2013-07-16 21:50:00,
2013-07-16 14:55:00,80.7,63.0,29.83,North,357,0.0,0.0,55,0.00,,---,0.00,VWS V13.00,2013-07-16 21:55:00,
2013-07-16 15:00:00,80.5,62.3,29.83,North,357,0.0,0.0,54,0.00,,---,0.00,VWS V13.00,2013-07-16 22:00:00,
2013-07-16 15:05:00,80.3,62.2,29.83,North,0,0.0,0.0,54,0.00,,---,0.00,VWS V13.00,2013-07-16 22:05:00,
2013-07-16 15:10:00,79.9,61.3,29.85,North,357,0.0,0.0,53,0.00,,---,0.00,VWS V13.00,2013-07-16 22:10:00,
2013-07-16 15:15:00,79.8,61.7,29.85,North,0,0.0,0.0,54,0.00,,---,0.00,VWS V13.00,2013-07-16 22:15:00,
2013-07-16 15:20:00,79.4,62.3,29.85,North,357,0.0,0.0,56,0.00,,---,0.00,VWS V13.00,2013-07-16 22:20:00,
2013-07-16 15:25:00,79.2,61.1,29.87,North,354,0.0,0.0,54,0.00,,---,0.00,VWS V13.00,2013-07-16 22:25:00,
2013-07-16 15:30:00,78.8,61.8,29.87,North,354,0.0,0.0,56,0.00,,---,0.00,VWS V13.00,2013-07-16 22:30:00,
2013-07-16 15:35:00,78.6,62.6,29.87,North,357,0.0,0.0,58,0.00,,---,0.00,VWS V13.00,2013-07-16 22:35:00,
2013-07-16 15:40:00,78.3,63.8,29.87,North,0,0.0,0.0,61,0.00,,---,0.00,VWS V13.00,2013-07-16 22:40:00,
2013-07-16 15:45:00,78.1,62.1,29.87,North,357,0.0,0.0,58,0.00,,---,0.00,VWS V13.00,2013-07-16 22:45:00,
2013-07-16 15:50:00,77.9,62.9,29.87,North,357,0.0,0.0,60,0.00,,---,0.00,VWS V13.00,2013-07-16 22:50:00,
2013-07-16 15:55:00,77.7,62.2,29.86,North,357,0.0,0.0,59,0.00,,---,0.00,VWS V13.00,2013-07-16 22:55:00,
2013-07-16 16:00:00,77.4,62.4,29.86,North,0,0.0,0.0,60,0.00,,---,0.00,VWS V13.00,2013-07-16 23:00:00,
2013-07-16 16:05:00,77.2,62.2,29.86,North,357,0.0,0.0,60,0.00,,---,0.00,VWS V13.00,2013-07-16 23:05:00,
2013-07-16 16:10:00,76.8,61.9,29.85,North,0,0.0,0.0,60,0.00,,---,0.00,VWS V13.00,2013-07-16 23:10:00,
2013-07-16 16:15:00,76.7,63.2,29.85,North,353,0.0,0.0,63,0.00,,---,0.00,VWS V13.00,2013-07-16 23:15:00,
2013-07-16 16:20:00,76.1,62.6,29.85,North,353,0.0,0.0,63,0.00,,---,0.00,VWS V13.00,2013-07-16 23:20:00,
2013-07-16 16:25:00,75.8,62.8,29.85,North,0,0.0,0.0,64,0.00,,---,0.00,VWS V13.00,2013-07-16 23:25:00,
2013-07-16 16:30:00,75.4,63.7,29.85,North,357,0.0,0.0,67,0.00,,---,0.00,VWS V13.00,2013-07-16 23:30:00,
2013-07-16 16:35:00,75.1,63.8,29.85,North,357,0.0,0.0,68,0.00,,---,0.00,VWS V13.00,2013-07-16 23:35:00,
2013-07-16 16:40:00,74.7,63.9,29.83,North,357,0.0,0.0,69,0.00,,---,0.00,VWS V13.00,2013-07-16 23:40:00,
2013-07-16 16:45:00,74.6,61.2,29.83,North,356,0.0,1.0,63,0.00,,---,0.00,VWS V13.00,2013-07-16 23:45:00,
2013-07-16 16:50:00,74.7,61.7,29.83,NNW,342,0.0,1.0,64,0.00,,---,0.00,VWS V13.00,2013-07-16 23:50:00,
2013-07-16 16:55:00,74.9,61.9,29.82,NW,319,0.0,1.0,64,0.00,,---,0.00,VWS V13.00,2013-07-16 23:55:00,
2013-07-16 17:00:00,75.3,60.9,29.82,North,0,0.0,5.0,61,0.00,,---,0.00,VWS V13.00,2013-07-17 00:00:00,
2013-07-16 17:05:00,75.6,60.3,29.82,WNW,296,0.0,5.0,59,0.00,,---,0.00,VWS V13.00,2013-07-17 00:05:00,
2013-07-16 17:10:00,76.0,60.7,29.82,North,350,0.0,1.0,59,0.00,,---,0.00,VWS V13.00,2013-07-17 00:10:00,
2013-07-16 17:15:00,76.3,60.9,29.82,WNW,296,0.0,1.0,59,0.00,,---,0.00,VWS V13.00,2013-07-17 00:15:00,
2013-07-16 17:20:00,76.7,60.3,29.82,North,0,1.0,6.0,57,0.00,,---,0.00,VWS V13.00,2013-07-17 00:20:00,
2013-07-16 17:25:00,77.0,60.6,29.82,WNW,301,6.0,6.0,57,0.00,,---,0.00,VWS V13.00,2013-07-17 00:25:00,
2013-07-16 17:30:00,77.4,61.0,29.82,West,272,0.0,6.0,57,0.00,,---,0.00,VWS V13.00,2013-07-17 00:30:00,
2013-07-16 17:35:00,78.3,61.3,29.82,NW,309,0.0,6.0,56,0.00,,---,0.00,VWS V13.00,2013-07-17 00:35:00,
2013-07-16 17:40:00,78.8,61.8,29.81,NW,304,0.0,2.0,56,0.00,,---,0.00,VWS V13.00,2013-07-17 00:40:00,
2013-07-16 17:45:00,79.6,62.5,29.81,North,0,0.0,5.0,56,0.00,,---,0.00,VWS V13.00,2013-07-17 00:45:00,
2013-07-16 17:50:00,80.1,62.5,29.81,North,0,0.0,5.0,55,0.00,,---,0.00,VWS V13.00,2013-07-17 00:50:00,
2013-07-16 17:55:00,80.5,62.3,29.80,SE,127,0.0,5.0,54,0.00,,---,0.00,VWS V13.00,2013-07-17 00:55:00,
2013-07-16 18:00:00,80.7,62.0,29.80,SE,127,0.0,5.0,53,0.00,,---,0.00,VWS V13.00,2013-07-17 01:00:00,
2013-07-16 18:05:00,80.9,62.7,29.80,East,79,0.0,5.0,54,0.00,,---,0.00,VWS V13.00,2013-07-17 01:05:00,
2013-07-16 18:10:00,80.9,62.7,29.80,East,79,0.0,0.0,54,0.00,,---,0.00,VWS V13.00,2013-07-17 01:10:00,
2013-07-16 18:15:00,81.1,62.4,29.80,East,79,0.0,0.0,53,0.00,,---,0.00,VWS V13.00,2013-07-17 01:15:00,
2013-07-16 18:20:00,81.1,62.9,29.80,East,79,0.0,0.0,54,0.00,,---,0.00,VWS V13.00,2013-07-17 01:20:00,
2013-07-16 18:25:00,81.1,61.8,29.79,East,79,0.0,0.0,52,0.00,,---,0.00,VWS V13.00,2013-07-17 01:25:00,
2013-07-16 18:30:00,81.1,61.3,29.79,ENE,75,0.0,0.0,51,0.00,,---,0.00,VWS V13.00,2013-07-17 01:30:00,
2013-07-16 18:35:00,81.1,61.8,29.79,ENE,75,0.0,0.0,52,0.00,,---,0.00,VWS V13.00,2013-07-17 01:35:00,
2013-07-16 18:40:00,81.1,63.4,29.81,ENE,75,0.0,0.0,55,0.00,,---,0.00,VWS V13.00,2013-07-17 01:40:00,
2013-07-16 18:45:00,81.1,62.4,29.81,ENE,75,0.0,0.0,53,0.00,,---,0.00,VWS V13.00,2013-07-17 01:45:00,
2013-07-16 18:50:00,80.9,62.2,29.81,ENE,75,0.0,0.0,53,0.00,,---,0.00,VWS V13.00,2013-07-17 01:50:00,
2013-07-16 18:55:00,80.9,63.2,29.81,ENE,75,0.0,0.0,55,0.00,,---,0.00,VWS V13.00,2013-07-17 01:55:00,
2013-07-16 19:00:00,80.7,63.0,29.81,ENE,75,0.0,0.0,55,0.00,,---,0.00,VWS V13.00,2013-07-17 02:00:00,
2013-07-16 19:05:00,80.7,63.0,29.81,ENE,75,0.0,0.0,55,0.00,,---,0.00,VWS V13.00,2013-07-17 02:05:00,
2013-07-16 19:10:00,80.5,63.4,29.82,ENE,75,0.0,0.0,56,0.00,,---,0.00,VWS V13.00,2013-07-17 02:10:00,
2013-07-16 19:15:00,80.5,63.4,29.82,ENE,75,0.0,0.0,56,0.00,,---,0.00,VWS V13.00,2013-07-17 02:15:00,
2013-07-16 19:20:00,80.5,63.4,29.82,ENE,75,0.0,0.0,56,0.00,,---,0.00,VWS V13.00,2013-07-17 02:20:00,
2013-07-16 19:25:00,80.5,63.9,29.83,ENE,75,0.0,0.0,57,0.00,,---,0.00,VWS V13.00,2013-07-17 02:25:00,
2013-07-16 19:30:00,80.5,62.9,29.83,ENE,75,0.0,0.0,55,0.00,,---,0.00,VWS V13.00,2013-07-17 02:30:00,
2013-07-16 19:35:00,80.5,61.3,29.83,ENE,75,0.0,0.0,52,0.00,,---,0.00,VWS V13.00,2013-07-17 02:35:00,
2013-07-16 19:40:00,80.5,62.3,29.83,ENE,75,0.0,0.0,54,0.00,,---,0.00,VWS V13.00,2013-07-17 02:40:00,
2013-07-16 19:45:00,80.3,62.7,29.83,ENE,75,0.0,0.0,55,0.00,,---,0.00,VWS V13.00,2013-07-17 02:45:00,
2013-07-16 19:50:00,80.1,62.5,29.83,ENE,75,0.0,0.0,55,0.00,,---,0.00,VWS V13.00,2013-07-17 02:50:00,
2013-07-16 19:55:00,79.8,62.7,29.83,ENE,75,0.0,0.0,56,0.00,,---,0.00,VWS V13.00,2013-07-17 02:55:00,
2013-07-16 20:00:00,79.6,63.5,29.83,ENE,75,0.0,0.0,58,0.00,,---,0.00,VWS V13.00,2013-07-17 03:00:00,
2013-07-16 20:05:00,79.2,62.2,29.83,ENE,75,0.0,0.0,56,0.00,,---,0.00,VWS V13.00,2013-07-17 03:05:00,
2013-07-16 20:10:00,78.6,63.1,29.83,NNW,336,0.0,0.0,59,0.00,,---,0.00,VWS V13.00,2013-07-17 03:10:00,
2013-07-16 20:15:00,78.3,63.3,29.83,NNW,336,0.0,0.0,60,0.00,,---,0.00,VWS V13.00,2013-07-17 03:15:00,
2013-07-16 20:20:00,77.7,62.2,29.83,NNW,336,0.0,0.0,59,0.00,,---,0.00,VWS V13.00,2013-07-17 03:20:00,
2013-07-16 20:25:00,77.2,62.7,29.83,NNW,336,0.0,0.0,61,0.00,,---,0.00,VWS V13.00,2013-07-17 03:25:00,
2013-07-16 20:30:00,76.7,63.2,29.83,NNW,336,0.0,0.0,63,0.00,,---,0.00,VWS V13.00,2013-07-17 03:30:00,
2013-07-16 20:35:00,76.1,63.0,29.83,NNW,337,0.0,0.0,64,0.00,,---,0.00,VWS V13.00,2013-07-17 03:35:00,
2013-07-16 20:40:00,75.8,63.2,29.84,NNW,336,0.0,0.0,65,0.00,,---,0.00,VWS V13.00,2013-07-17 03:40:00,
2013-07-16 20:45:00,75.4,63.3,29.84,NNW,337,0.0,0.0,66,0.00,,---,0.00,VWS V13.00,2013-07-17 03:45:00,
2013-07-16 20:50:00,75.1,63.0,29.84,NNW,336,0.0,0.0,66,0.00,,---,0.00,VWS V13.00,2013-07-17 03:50:00,
2013-07-16 20:55:00,74.7,63.9,29.84,NNW,336,0.0,0.0,69,0.00,,---,0.00,VWS V13.00,2013-07-17 03:55:00,
2013-07-16 21:00:00,74.0,62.4,29.84,NNW,336,0.0,0.0,67,0.00,,---,0.00,VWS V13.00,2013-07-17 04:00:00,
2013-07-16 21:01:00,74.0,62.4,29.84,NNW,337,0.0,0.0,67,0.00,,---,0.00,VWS V13.00,2013-07-17 04:01:00,
2013-07-16 21:06:00,73.5,63.5,29.84,NNW,336,0.0,0.0,71,0.00,,---,0.00,VWS V13.00,2013-07-17 04:06:00,
2013-07-16 21:11:00,73.2,62.8,29.84,NNW,337,0.0,0.0,70,0.00,,---,0.00,VWS V13.00,2013-07-17 04:11:00,
2013-07-16 21:16:00,73.0,63.0,29.84,NNW,336,0.0,0.0,71,0.00,,---,0.00,VWS V13.00,2013-07-17 04:16:00,
2013-07-16 21:21:00,72.8,62.9,29.86,NNW,336,0.0,0.0,71,0.00,,---,0.00,VWS V13.00,2013-07-17 04:21:00,
2013-07-16 21:26:00,72.5,62.6,29.86,NNW,336,0.0,0.0,71,0.00,,---,0.00,VWS V13.00,2013-07-17 04:26:00,
2013-07-16 21:31:00,72.3,62.8,29.86,NNW,336,0.0,0.0,72,0.00,,---,0.00,VWS V13.00,2013-07-17 04:31:00,
2013-07-16 21:36:00,72.1,63.0,29.86,NNW,337,0.0,0.0,73,0.00,,---,0.00,VWS V13.00,2013-07-17 04:36:00,
2013-07-16 21:41:00,72.0,62.9,29.86,NNW,337,0.0,0.0,73,0.00,,---,0.00,VWS V13.00,2013-07-17 04:41:00,
2013-07-16 21:46:00,71.6,62.5,29.86,NNW,337,0.0,0.0,73,0.00,,---,0.00,VWS V13.00,2013-07-17 04:46:00,
2013-07-16 21:51:00,71.5,62.8,29.86,NNW,337,0.0,0.0,74,0.00,,---,0.00,VWS V13.00,2013-07-17 04:51:00,
2013-07-16 21:55:00,71.3,62.2,29.86,NNW,336,0.0,0.0,73,0.00,,---,0.00,VWS V13.00,2013-07-17 04:55:00,
2013-07-16 21:59:00,71.1,62.0,29.86,NNW,336,0.0,0.0,73,0.00,,---,0.00,VWS V13.00,2013-07-17 04:59:00,
2013-07-16 22:04:00,70.8,61.7,29.86,NNW,336,0.0,0.0,73,0.00,,---,0.00,VWS V13.00,2013-07-17 05:04:00,
2013-07-16 22:09:00,70.4,60.6,29.88,NNW,337,0.0,0.0,71,0.00,,---,0.00,VWS V13.00,2013-07-17 05:09:00,
2013-07-16 22:14:00,70.1,60.3,29.88,NNW,336,0.0,0.0,71,0.00,,---,0.00,VWS V13.00,2013-07-17 05:14:00,
2013-07-16 22:19:00,69.8,60.0,29.88,NNW,336,0.0,0.0,71,0.00,,---,0.00,VWS V13.00,2013-07-17 05:19:00,
2013-07-16 22:24:00,69.6,61.0,29.88,NNW,336,0.0,0.0,74,0.00,,---,0.00,VWS V13.00,2013-07-17 05:24:00,
2013-07-16 22:29:00,69.3,61.0,29.88,NNW,336,0.0,0.0,75,0.00,,---,0.00,VWS V13.00,2013-07-17 05:29:00,
2013-07-16 22:34:00,69.1,60.8,29.88,NNW,337,0.0,0.0,75,0.00,,---,0.00,VWS V13.00,2013-07-17 05:34:00,
2013-07-16 22:39:00,68.9,61.4,29.89,NNW,337,0.0,0.0,77,0.00,,---,0.00,VWS V13.00,2013-07-17 05:39:00,
2013-07-16 22:44:00,68.8,61.7,29.89,NNW,337,0.0,0.0,78,0.00,,---,0.00,VWS V13.00,2013-07-17 05:44:00,
2013-07-16 22:49:00,68.4,61.6,29.89,NNW,337,0.0,0.0,79,0.00,,---,0.00,VWS V13.00,2013-07-17 05:49:00,
2013-07-16 22:54:00,68.1,61.3,29.90,NNW,336,0.0,0.0,79,0.00,,---,0.00,VWS V13.00,2013-07-17 05:54:00,
2013-07-16 22:59:00,67.8,61.1,29.90,NNW,337,0.0,0.0,79,0.00,,---,0.00,VWS V13.00,2013-07-17 05:59:00,
2013-07-16 23:04:00,67.6,61.2,29.90,NNW,336,0.0,0.0,80,0.00,,---,0.00,VWS V13.00,2013-07-17 06:04:00,
2013-07-16 23:09:00,67.4,61.0,29.90,NNW,336,0.0,0.0,80,0.00,,---,0.00,VWS V13.00,2013-07-17 06:09:00,
2013-07-16 23:14:00,67.1,60.7,29.90,NNW,336,0.0,0.0,80,0.00,,---,0.00,VWS V13.00,2013-07-17 06:14:00,
2013-07-16 23:19:00,66.8,60.8,29.90,NNW,337,0.0,0.0,81,0.00,,---,0.00,VWS V13.00,2013-07-17 06:19:00,
2013-07-16 23:24:00,66.4,60.0,29.90,NNW,337,0.0,0.0,80,0.00,,---,0.00,VWS V13.00,2013-07-17 06:24:00,
2013-07-16 23:29:00,66.3,60.0,29.90,NNW,337,0.0,0.0,80,0.00,,---,0.00,VWS V13.00,2013-07-17 06:29:00,
2013-07-16 23:34:00,66.0,59.3,29.90,NNW,339,0.0,0.0,79,0.00,,---,0.00,VWS V13.00,2013-07-17 06:34:00,
2013-07-16 23:39:00,65.8,59.5,29.90,NNW,339,0.0,0.0,80,0.00,,---,0.00,VWS V13.00,2013-07-17 06:39:00,
2013-07-16 23:44:00,65.6,59.3,29.90,NNW,339,0.0,0.0,80,0.00,,---,0.00,VWS V13.00,2013-07-17 06:44:00,
2013-07-16 23:49:00,65.5,58.8,29.90,NNW,339,0.0,0.0,79,0.00,,---,0.00,VWS V13.00,2013-07-17 06:49:00,
2013-07-16 23:54:00,65.2,58.5,29.91,NNW,339,0.0,0.0,79,0.00,,---,0.00,VWS V13.00,2013-07-17 06:54:00,
2013-07-16 23:59:00,65.0,58.0,29.91,NNW,339,0.0,0.0,78,0.00,,---,0.00,VWS V13.00,2013-07-17 06:59:00,